{"data":{"norad_id":41166,"epoch":"2026-05-24T14:38:20.008320Z","epoch_age_seconds":115701,"freshness":"FRESH","line1":"1 41166U 15077A   26144.60995380  .00019548  00000+0  33007-3 0  9997","line2":"2 41166  14.9822 266.9543 0004414 237.1085 122.8816 15.48851940579060","mean_motion":15.4885194,"eccentricity":0.0004414,"inclination_deg":14.9822,"raan_deg":266.9543,"arg_perigee_deg":237.1085,"mean_anomaly_deg":122.8816,"bstar":0.00033007,"rev_number":57906,"period_min":92.972088733026,"perigee_km":417.08263740061,"apogee_km":423.0841063449,"semimajor_km":6798.2203718728,"source":"CELESTRAK","updated_at":"2026-05-25T13:37:55.586092Z"}}